sat.trackr.live / text

‹ back to catalog

WGS F9 (USA 275)

NORAD 42075 · 2017-016A

PAYLOAD ACTIVE UNKNOWN

§ Identity

Operator
Country
US
Launch date
2017-03-19
Launch site
AFETR
Launch vehicle
Mass (kg)
RCS (m²)

Purposes: comms

External: N2YO · Heavens-Above · Gunter

§ Orbital elements

Epoch: 2026-09-19T20:20:09.458880Z

Period
1,436.12 min
Inclination
0.0157°
Eccentricity
0.0000293
Mean motion
1.00270430 rev/d
Perigee alt
35,785.7 km
Apogee alt
35,788.2 km
Semi-major
42,165.1 km
B*
0.0000e+0
RAAN
173.3784°
Arg perigee
312.3091°
Mean anomaly
166.1214°
Rev number
3,484

§ Raw data

WGS F9 (USA 275)1 42075U 17016A   26262.84733170  .00000000  00000+0  00000+0 0  99922 42075   0.0157 173.3784 0000293 312.3091 166.1214  1.00270430 34846

JSON: /api/v1/satellites/42075 · /tle

For live sub-satellite position, see the globe view (requires WebGL).

§ Visibility from observer

Set your observer location to see the next 7 days of passes ≥ 10°. The values pass through the URL so the page stays shareable.

No JS? Fill the form by hand. The geolocation button needs JavaScript.